GFSSE_250_spd_273.txt.gz
Wind_Speed
11 7 4 6 6 15 13 14 22 19 19 21 23 27 27 20 18 14 13 12 12 10 10 8 9 10 12 11 12 12 12 10 14 14 12 12 13 14 13 10 13 13 13
10 9 5 13 12 15 13 22 20 16 20 22 24 21 19 15 11 9 9 10 10 9 6 8 10 12 11 14 16 17 12 12 17 17 18 17 19 14 12 12 12 19 18
12 9 7 11 9 15 24 17 13 19 23 21 20 14 14 13 12 16 17 15 16 17 16 14 12 11 12 13 12 12 17 21 22 22 21 21 22 20 16 26 24 19 17
8 9 14 14 15 21 11 12 16 21 19 17 15 11 15 25 29 33 36 36 34 32 27 24 20 20 19 20 20 20 20 18 21 23 25 23 21 21 22 24 22 22 20
7 11 16 17 19 9 9 15 13 14 13 14 15 24 31 37 39 38 36 33 29 26 24 22 20 20 21 19 18 17 21 19 20 25 24 24 24 25 26 25 24 20 21
13 16 14 11 6 7 10 7 10 11 20 34 38 39 37 35 36 38 38 37 32 27 23 19 16 16 15 19 22 21 24 30 27 25 27 27 26 25 26 25 28 31 27
12 9 6 2 4 4 4 6 11 24 37 39 40 37 33 35 34 32 31 34 35 30 29 23 24 27 27 28 28 24 24 28 30 30 33 36 36 34 31 26 22 25 29
11 8 6 5 1 2 5 12 23 35 38 36 33 30 29 28 27 27 26 31 32 33 30 27 25 27 26 24 27 28 31 27 22 23 37 44 36 26 30 25 30 27 27
8 7 4 1 3 10 16 23 34 35 32 31 30 28 26 25 27 27 29 27 28 29 28 25 26 28 28 30 28 31 34 36 33 36 43 49 45 35 31 32 35 31 27
6 5 6 9 13 18 26 35 34 32 28 25 25 25 23 23 24 25 23 23 27 28 25 25 26 27 28 28 31 33 36 39 39 39 47 49 50 39 35 34 31 26 25
8 8 9 12 18 31 35 35 32 27 20 19 22 19 25 29 26 22 21 24 24 27 27 26 26 24 26 28 30 34 39 41 40 41 43 49 53 47 40 32 25 21 22
11 12 17 21 31 38 37 33 27 24 22 17 17 21 16 20 17 23 25 24 25 28 29 25 24 25 27 32 33 34 32 34 42 42 45 46 51 52 42 37 32 27 26
16 19 22 34 40 37 33 27 22 20 19 19 18 24 15 13 8 21 21 21 27 26 25 22 25 28 29 29 29 33 41 40 44 47 49 46 50 53 49 44 45 36 30
24 29 37 39 40 35 28 19 17 19 21 20 17 25 18 21 13 14 16 24 26 25 25 26 31 28 26 26 33 36 32 37 39 39 39 50 48 48 49 47 45 34 33
30 35 37 37 33 27 22 19 17 18 19 16 15 19 18 14 15 18 20 25 24 25 26 28 27 27 28 34 34 33 35 35 39 44 53 56 51 51 52 51 51 45 35
28 32 30 31 26 22 18 15 14 16 15 15 14 20 16 15 15 18 22 24 23 22 24 24 25 31 35 32 32 35 38 46 47 47 49 56 57 55 55 59 56 55 49
27 28 26 26 23 18 11 11 12 10 10 12 12 15 17 15 19 22 24 22 22 24 22 24 27 29 25 32 36 41 44 49 49 44 58 56 60 62 63 62 63 60 58
25 23 20 19 16 13 9 8 8 8 10 9 8 14 14 17 19 20 21 20 22 22 22 24 26 26 27 32 37 41 43 44 44 47 54 56 64 67 70 65 70 69 68
12 14 15 16 13 9 7 7 8 8 7 7 8 12 14 18 19 20 20 19 19 17 21 22 24 25 31 33 35 42 50 49 47 43 51 59 62 66 74 71 75 75 78
15 15 15 13 9 7 7 6 7 11 9 10 12 15 13 13 14 16 16 13 14 16 11 14 20 22 27 34 37 42 50 44 46 43 50 57 64 68 71 78 78 84 87
15 14 13 12 11 10 10 11 14 14 14 13 10 9 7 4 8 12 15 17 14 15 13 17 19 22 24 34 37 41 48 44 43 45 51 61 64 71 71 77 82 86 89
10 11 11 12 12 12 11 10 10 11 10 8 6 3 3 4 7 11 15 20 20 20 20 19 22 20 21 21 35 47 48 45 48 51 58 64 65 69 69 77 82 87 90
5 7 6 4 4 5 5 6 7 6 6 7 4 1 1 2 2 8 13 18 23 23 21 20 24 26 26 34 35 42 39 49 51 52 61 64 64 67 69 77 84 87 92
7 5 3 2 1 1 3 4 3 2 4 6 5 4 5 6 7 8 13 18 22 22 23 23 25 26 29 31 35 44 47 49 48 51 58 61 64 71 70 76 85 88 95
13 11 9 6 4 2 3 3 5 4 6 9 11 10 10 10 11 12 13 16 21 23 21 22 25 27 34 33 36 45 49 48 45 48 58 64 72 73 72 75 84 89 92
23 20 16 14 11 10 10 8 8 9 9 10 12 14 13 14 14 15 14 15 20 22 23 25 25 31 32 37 43 42 49 47 41 46 53 61 69 71 71 75 80 91 92

GFSSE_250_spd_276.txt.gz
Wind_Speed
12 8 7 5 4 8 12 20 23 18 20 24 22 22 17 14 12 12 11 11 10 11 11 12 15 17 18 23 23 22 20 21 23 23 22 21 19 19 15 13 13 13 14
15 11 5 4 9 7 16 23 19 18 22 21 20 17 15 12 13 13 18 20 21 20 20 20 21 21 20 21 23 23 21 22 23 22 24 22 21 19 15 15 21 21 20
12 9 5 4 5 8 16 17 16 18 19 18 17 18 27 32 33 34 35 34 33 32 27 23 22 20 19 20 21 19 21 27 33 33 31 27 23 19 15 20 18 20 16
8 5 4 6 9 13 15 13 16 16 13 16 25 36 38 38 37 35 32 31 29 27 23 23 22 20 19 23 29 31 32 35 36 31 29 28 27 25 21 22 21 20 20
9 6 6 8 11 13 9 14 13 10 18 31 35 40 39 37 36 33 29 26 24 21 20 20 18 23 26 24 27 31 31 31 29 34 39 33 27 25 29 26 20 20 23
7 9 6 8 6 3 12 11 12 28 34 34 34 36 33 34 37 37 33 30 29 25 27 27 27 28 25 23 26 26 25 27 29 35 40 35 33 29 25 26 18 17 19
8 7 2 2 7 9 7 15 32 36 34 32 33 30 28 31 31 31 31 31 27 26 27 27 23 24 29 34 33 31 25 25 29 35 38 34 34 27 25 22 21 23 25
10 6 8 9 8 8 16 30 34 31 30 31 29 27 30 31 27 27 28 27 25 28 28 30 28 30 31 30 28 28 29 29 30 36 42 36 34 32 30 25 20 19 22
11 11 6 8 12 18 30 33 32 26 29 28 27 28 25 24 23 24 24 24 24 27 26 25 26 29 27 27 29 31 33 33 36 36 40 39 34 34 30 24 19 16 17
9 9 14 18 18 28 33 30 27 26 27 26 25 26 26 26 30 22 22 25 27 27 24 26 28 27 28 30 26 29 37 42 41 36 38 41 42 37 29 34 25 17 15
13 13 19 21 30 34 30 24 25 23 21 15 15 21 21 20 25 23 21 27 28 27 26 26 28 28 26 26 27 32 39 39 43 39 40 41 40 38 36 35 32 28 21
13 16 23 34 37 34 26 23 18 16 14 17 14 20 13 13 20 22 27 28 29 27 28 27 25 24 25 29 28 31 34 41 48 47 42 42 44 47 45 41 36 29 22
17 22 34 38 37 31 25 20 18 18 20 23 18 16 16 20 19 25 29 28 29 25 27 26 26 28 25 23 30 29 29 35 42 48 48 43 50 56 55 53 47 43 31
24 33 40 36 33 25 23 20 19 18 18 19 16 15 18 22 23 30 28 29 30 26 25 26 26 27 27 29 31 35 32 36 39 42 49 47 48 55 56 58 55 52 47
38 40 37 32 25 22 21 20 18 18 19 17 16 21 21 22 24 27 23 21 23 23 26 25 25 22 31 35 36 44 38 44 39 39 46 52 54 57 56 58 60 63 65
37 36 32 25 22 19 17 17 17 18 17 19 17 17 19 23 22 25 23 24 22 20 22 20 19 23 33 35 37 44 45 43 42 51 46 51 52 53 58 60 63 65 70
32 30 23 20 17 13 12 12 12 15 13 12 11 14 21 22 22 21 20 20 19 19 17 14 15 29 34 35 39 43 44 43 45 49 51 51 54 56 55 60 67 68 76
23 22 20 16 13 8 5 7 11 11 8 8 11 16 21 19 18 18 19 18 15 16 16 18 20 26 32 34 38 47 43 46 47 49 48 55 61 64 60 67 68 69 79
17 18 16 12 8 5 3 5 6 5 5 8 11 16 16 18 17 15 13 14 16 19 19 22 24 26 23 31 37 44 40 45 44 46 50 61 64 63 65 69 71 76 82
13 12 13 11 8 6 5 4 5 4 9 12 11 11 12 12 13 16 19 18 19 21 23 22 26 26 30 32 39 40 45 46 42 46 53 61 62 71 64 68 72 76 82
10 9 10 9 6 4 6 7 8 9 11 10 10 6 4 8 10 11 16 22 24 26 27 23 26 30 33 31 33 43 49 49 43 46 51 59 62 60 72 71 71 77 82
11 11 11 9 9 10 10 8 6 8 8 6 4 6 6 5 7 12 17 20 21 22 24 24 26 25 27 30 37 41 51 49 43 49 53 57 62 63 71 71 73 77 83
5 5 5 5 5 4 6 6 5 3 6 6 3 4 6 8 9 11 16 18 22 24 21 23 19 24 25 33 36 35 46 45 44 52 54 59 62 65 69 71 74 77 84
8 6 3 2 1 2 2 1 0 2 2 3 6 7 8 9 9 12 14 16 19 22 20 17 22 29 29 35 39 46 43 41 49 47 57 56 61 68 72 73 74 80 86
13 11 11 9 7 6 4 4 5 6 5 6 9 10 11 11 10 12 14 16 16 21 20 21 26 31 28 33 34 41 46 45 52 50 58 59 65 67 72 76 76 80 86
23 22 18 14 13 13 12 10 9 10 11 11 11 10 10 11 14 14 14 15 18 20 24 24 29 32 31 33 34 37 37 39 50 49 50 59 67 66 72 76 75 81 86

GFSSE_250_spd_279.txt.gz
Wind_Speed
7 9 6 3 3 9 8 18 20 18 17 17 16 12 10 8 12 14 14 15 19 23 26 24 24 23 22 23 27 23 20 23 30 30 28 25 22 17 17 15 16 18 17
12 10 4 4 6 11 10 19 19 15 17 14 16 20 22 25 29 33 34 35 33 30 28 24 24 26 26 28 26 24 24 25 29 29 26 23 26 22 15 15 15 17 22
16 9 4 1 3 10 16 17 12 15 16 26 33 36 37 38 36 35 34 31 29 29 25 23 25 31 33 23 22 20 22 24 27 30 30 30 25 24 22 24 16 16 18
12 7 6 3 5 13 16 10 13 18 30 33 36 38 37 35 31 29 27 24 22 21 23 27 28 27 23 20 18 19 23 30 33 33 32 30 18 15 14 12 13 13 14
11 7 2 5 8 10 5 11 17 30 32 34 36 35 34 30 27 24 22 20 20 24 26 26 23 21 19 19 17 21 24 27 32 31 28 24 13 16 17 18 12 12 13
11 5 6 5 4 3 10 21 32 31 33 32 33 34 32 30 25 23 23 27 29 28 26 26 25 23 24 26 26 26 25 29 35 28 26 30 29 30 25 19 11 8 10
6 4 2 6 5 9 20 32 31 32 30 31 27 26 27 27 28 28 26 28 30 27 25 25 26 25 27 30 32 29 32 31 31 35 33 37 36 32 29 27 21 16 14
7 2 7 9 10 21 31 30 31 27 26 28 28 23 25 23 23 24 26 29 28 24 24 25 23 25 29 31 37 39 40 38 38 40 38 36 32 33 36 35 31 20 18
6 8 11 11 21 32 31 28 28 23 20 24 24 28 28 22 19 24 28 26 25 24 22 24 26 25 27 33 39 38 37 37 41 41 39 41 40 34 36 40 31 28 18
12 10 17 22 32 30 27 24 25 22 22 22 19 18 25 23 24 29 28 27 24 21 24 25 24 26 26 27 31 33 35 41 40 41 41 44 44 43 45 42 43 28 27
15 21 23 29 34 27 23 23 21 15 10 14 16 12 19 25 29 30 28 25 22 23 23 24 27 26 23 28 28 37 33 36 42 42 41 45 42 43 49 50 53 46 33
20 23 28 36 30 25 20 19 15 7 12 14 16 20 23 29 30 29 26 24 24 27 24 25 27 25 28 36 28 35 32 38 36 42 42 43 39 40 45 52 53 55 53
23 29 39 33 29 23 18 14 13 17 14 13 16 23 26 31 29 30 25 24 24 25 27 30 30 28 31 36 42 39 38 35 41 43 47 42 42 43 47 51 55 58 57
34 42 38 32 25 20 17 18 13 16 19 23 24 27 28 29 27 24 22 21 23 23 26 27 29 32 31 36 42 35 39 38 38 34 52 52 48 46 45 53 54 56 61
42 38 33 30 22 19 18 16 14 18 20 20 23 25 26 24 22 21 19 20 18 19 20 22 27 29 29 29 36 33 39 37 39 38 46 48 51 56 49 50 51 59 65
37 31 30 25 20 15 16 15 14 14 15 20 20 22 22 21 17 15 16 16 16 14 10 16 24 26 28 35 33 34 39 37 36 38 48 50 50 55 55 49 58 59 66
32 27 26 22 16 11 11 11 11 14 13 16 17 20 18 16 16 14 15 15 10 12 8 16 18 18 24 31 36 40 41 37 36 40 44 50 54 58 62 59 58 60 65
27 24 19 15 9 7 6 6 9 9 10 16 18 19 17 15 13 13 11 12 13 13 15 17 19 21 20 31 31 36 43 39 37 43 48 47 54 59 60 57 62 65 68
22 17 13 9 5 1 3 4 4 4 8 15 18 17 15 15 17 15 19 20 20 23 18 19 22 26 24 30 29 38 41 38 40 43 45 49 50 57 64 62 65 65 66
15 15 12 8 4 3 3 5 4 2 5 12 12 11 10 10 10 13 17 20 22 24 23 22 25 19 24 28 33 36 39 36 44 43 44 50 53 61 61 66 69 71 71
12 13 10 7 4 5 3 0 3 7 8 9 7 3 2 4 7 11 16 19 22 24 21 20 26 29 26 31 32 34 34 36 43 47 43 52 57 61 60 67 69 72 75
9 7 5 4 4 4 4 5 7 11 8 5 3 3 2 3 8 10 14 17 22 24 20 20 28 29 29 39 39 35 32 41 40 44 42 52 61 57 61 66 69 72 77
11 10 10 9 8 6 3 2 2 6 8 5 4 4 7 9 10 11 14 16 19 20 21 22 27 29 30 35 39 38 34 46 47 44 45 49 58 56 59 65 70 74 82
12 11 10 7 6 5 4 3 2 3 2 3 4 4 7 9 10 12 13 14 15 18 21 24 26 30 29 29 33 34 34 45 39 44 48 43 55 55 60 67 71 76 85
15 14 13 11 11 10 8 7 7 6 5 5 6 7 7 8 12 15 13 12 15 17 20 25 28 33 35 35 31 31 34 39 45 44 45 47 57 57 61 70 74 81 88
20 19 16 17 16 16 15 14 14 13 12 11 11 11 11 12 13 14 15 17 20 23 27 29 33 35 35 34 32 26 32 38 39 48 46 54 53 59 64 71 76 83 89

GFSSE_250_spd_285.txt.gz
Wind_Speed
4 2 6 6 11 12 13 18 18 13 8 6 5 7 11 11 12 19 21 22 20 20 18 18 18 17 20 21 18 17 22 26 23 22 11 14 8 10 8 8 10 10 11
8 3 7 8 11 15 17 15 12 18 22 22 21 22 23 24 28 33 28 24 25 21 19 20 21 22 19 23 27 29 32 35 34 31 25 17 17 11 9 5 1 3 5
8 6 8 10 10 14 13 15 20 29 32 35 38 39 38 35 33 30 27 27 23 23 21 19 19 15 14 19 24 28 32 34 40 35 32 34 37 32 25 17 8 6 8
10 12 9 9 12 8 12 18 26 26 27 27 29 30 31 29 30 28 26 26 25 25 22 19 26 32 25 27 28 31 32 33 36 43 44 42 43 43 37 32 21 18 9
11 10 9 9 7 9 21 21 23 25 23 20 22 27 27 29 29 28 24 21 24 31 27 31 32 29 30 34 32 34 30 38 39 42 42 44 48 51 51 41 31 28 22
7 9 8 6 7 26 23 24 27 26 24 22 19 17 21 25 26 23 20 25 33 29 25 30 28 28 33 33 31 32 33 34 31 37 37 41 44 45 48 51 47 43 41
7 8 7 8 29 24 24 25 24 22 19 18 20 25 24 26 23 19 21 24 28 26 27 29 26 26 28 33 35 32 35 31 34 34 34 35 37 42 45 47 50 52 52
7 5 5 25 27 25 22 22 19 20 17 15 17 25 24 25 22 20 24 27 26 28 27 23 26 26 26 28 35 37 36 36 34 37 36 35 41 40 41 44 46 49 52
9 6 11 31 27 26 24 19 19 17 15 14 16 24 25 21 19 22 26 27 27 24 28 29 21 27 23 25 25 31 34 33 34 30 32 33 37 42 41 47 46 45 45
11 10 22 29 25 20 19 21 16 9 8 14 20 25 20 17 23 24 26 25 23 18 26 29 30 28 26 22 25 23 35 34 40 39 36 37 34 41 41 46 45 42 42
15 14 29 27 23 20 18 18 15 14 12 22 23 23 19 21 24 23 23 24 22 18 22 24 24 25 26 26 25 27 31 36 44 47 45 40 36 39 45 40 42 45 42
18 23 31 26 20 16 14 11 10 12 17 24 24 21 25 22 24 25 25 22 21 20 22 23 25 25 26 27 25 29 27 35 40 48 41 35 38 33 38 40 49 49 44
25 32 28 23 19 14 7 7 5 17 24 23 22 24 24 26 28 24 21 20 21 20 21 22 21 21 22 22 25 33 35 31 33 40 38 32 31 35 37 46 46 47 52
33 30 26 20 16 12 4 13 14 22 25 23 19 20 22 23 23 20 15 14 14 14 14 16 16 15 19 24 25 29 34 30 24 25 24 26 28 33 41 41 53 42 46
31 26 22 14 12 4 6 11 16 23 21 21 20 20 22 22 19 14 8 6 7 11 9 13 10 13 9 21 24 26 31 40 30 30 41 23 37 27 35 49 59 41 45
30 24 18 15 13 12 11 9 12 20 19 20 18 16 15 14 13 9 6 4 8 15 18 15 3 9 10 14 26 28 27 39 37 29 35 37 40 37 36 39 49 42 39
28 23 19 18 15 11 9 11 11 17 18 17 13 12 9 7 4 2 2 6 6 6 12 14 5 15 19 21 23 28 22 34 31 25 29 31 31 23 22 25 32 40 44
25 21 19 15 11 11 9 9 9 13 18 15 12 10 9 10 8 10 8 10 8 10 14 13 12 18 15 20 21 21 23 31 33 25 24 30 29 26 30 36 39 39 41
23 20 15 8 3 4 5 6 7 15 18 18 13 7 11 11 6 7 9 12 15 11 13 15 11 26 23 23 16 17 27 26 33 30 32 31 26 26 33 39 44 43 41
21 15 11 8 5 2 2 3 7 17 21 17 14 13 9 4 1 3 6 10 13 12 16 15 12 22 29 25 17 26 30 27 31 28 33 39 30 29 41 50 52 48 48
19 15 12 9 7 6 5 5 8 19 19 17 13 10 6 6 6 9 11 11 14 15 17 19 20 23 27 29 24 21 29 31 36 37 31 37 29 33 44 50 52 48 49
20 18 16 14 11 6 5 6 12 19 20 16 12 10 6 8 9 11 13 12 13 15 18 19 22 24 27 28 32 27 31 35 39 39 35 37 30 36 39 50 51 52 44
23 22 20 18 12 9 9 7 10 13 14 14 11 9 6 5 5 8 10 11 11 15 19 23 26 29 32 36 39 41 41 40 41 43 43 40 41 44 48 45 44 50 63
22 20 19 17 13 11 9 9 11 11 11 11 10 9 8 7 8 9 9 10 12 17 21 24 29 33 38 40 44 45 45 46 49 50 47 37 41 42 49 41 50 62 61
22 20 18 18 17 16 14 12 12 12 11 11 12 13 13 12 13 14 13 15 18 22 27 29 34 37 39 42 45 47 47 51 51 50 45 43 45 53 54 55 60 67 54
23 23 22 21 21 20 19 18 17 16 16 17 18 19 18 17 17 18 20 23 26 28 31 33 37 40 45 47 45 46 48 51 45 43 44 46 48 50 54 59 61 56 55

GFSSE_250_spd_288.txt.gz
Wind_Speed
5 3 7 11 14 18 22 20 15 12 6 5 8 15 17 17 19 19 19 22 24 20 22 18 25 30 35 35 39 39 33 35 36 35 34 30 24 16 12 10 8 4 8
5 3 7 10 17 16 19 14 21 27 25 21 22 24 21 21 21 26 25 26 21 22 20 22 23 27 29 31 38 40 44 42 46 46 45 43 34 32 26 24 15 13 8
3 7 7 11 14 17 10 18 25 30 33 37 36 34 32 30 27 26 25 24 22 24 28 28 26 27 27 34 35 38 37 35 40 41 43 47 49 47 48 47 30 21 14
6 7 9 11 15 6 14 17 19 25 27 31 30 31 32 30 31 28 26 24 27 28 30 32 32 34 29 26 28 30 33 34 35 39 43 41 43 47 53 54 46 43 34
6 7 9 11 7 16 15 17 19 20 23 26 27 30 31 30 28 27 29 29 30 28 29 30 28 30 34 35 37 37 34 37 38 39 44 40 42 44 50 50 49 51 47
4 7 11 8 14 15 18 21 22 21 18 19 24 28 28 26 29 31 31 29 27 27 31 30 32 32 34 36 32 35 38 34 37 44 43 47 44 47 48 53 47 47 50
3 9 7 8 16 20 20 19 18 18 19 17 22 24 21 22 33 34 30 26 22 26 26 24 30 34 33 35 33 32 30 27 29 32 40 39 41 45 47 48 51 48 48
10 6 6 20 19 20 17 14 15 16 18 20 22 20 18 19 26 27 28 29 24 27 24 23 24 22 27 33 34 39 33 33 25 25 28 32 31 37 41 43 46 46 46
11 3 23 18 17 17 12 12 12 14 15 20 21 18 16 23 27 29 26 27 32 31 28 25 25 25 25 27 30 28 35 32 33 26 24 25 29 30 32 37 38 44 43
9 13 26 20 20 17 13 9 6 9 14 20 20 16 19 24 26 29 22 22 25 24 22 29 26 26 32 32 25 23 29 35 28 31 28 24 25 33 47 48 48 49 49
13 23 29 20 16 17 15 11 9 11 19 24 20 16 21 23 23 22 19 15 19 24 24 26 23 21 27 29 27 22 14 22 30 26 26 28 32 32 35 42 50 47 47
17 29 27 19 16 13 10 11 9 14 21 21 17 18 22 22 23 19 20 19 20 22 19 17 26 24 24 23 29 37 35 25 28 46 39 20 30 32 35 36 43 46 48
23 33 25 19 13 8 3 2 10 17 21 20 20 22 25 22 25 21 17 17 15 16 16 12 14 18 24 24 22 33 40 27 24 26 35 14 27 32 38 30 40 48 45
32 29 25 16 10 4 6 6 17 22 21 22 20 25 24 16 21 15 13 7 5 10 12 10 13 8 15 17 20 27 36 32 18 15 23 21 18 28 26 37 35 36 47
31 25 20 11 8 1 4 12 19 20 21 19 18 23 14 18 13 9 3 3 7 17 13 14 14 5 10 16 20 19 23 24 25 16 22 26 19 25 27 28 26 26 37
28 22 14 10 6 5 6 11 17 14 17 17 16 19 18 14 10 8 5 6 12 12 7 7 5 12 18 10 22 19 21 26 27 22 21 24 23 20 12 28 23 27 36
25 20 15 12 8 6 8 10 16 12 12 14 12 13 13 9 5 4 2 7 7 12 11 14 19 3 14 18 16 20 20 21 21 23 25 24 30 22 22 28 33 36 37
24 21 19 15 11 10 9 9 12 14 14 14 12 9 6 8 5 3 7 3 9 13 3 9 12 19 18 16 12 15 23 16 22 25 24 27 29 30 21 22 28 37 41
24 21 18 13 9 7 8 9 10 15 16 15 12 9 9 10 5 4 3 6 11 9 5 5 8 14 19 17 15 14 24 18 28 30 30 26 30 30 27 37 37 39 39
23 19 12 7 4 2 1 8 12 17 21 18 15 10 12 9 5 3 3 8 10 9 10 12 10 11 19 22 25 24 26 33 36 37 36 37 36 35 34 38 42 42 39
21 16 12 8 6 6 7 9 12 19 23 20 17 15 15 13 11 10 11 11 14 14 9 13 17 17 21 26 31 35 40 44 46 45 46 47 45 41 35 40 47 42 39
20 17 15 12 12 10 11 11 15 21 24 22 17 14 14 13 14 14 12 12 9 11 13 14 19 24 29 31 35 41 45 49 50 49 49 47 41 41 41 43 51 54 51
24 21 19 19 17 15 12 11 15 24 27 24 21 15 15 13 12 10 6 5 7 12 16 19 22 24 31 34 35 42 51 51 51 50 46 40 41 42 46 48 55 58 60
26 27 26 24 22 18 15 14 13 18 22 23 23 20 18 15 13 10 10 11 14 17 20 23 27 31 36 38 45 52 54 54 51 45 43 43 43 45 50 55 59 62 62
28 28 26 24 21 18 17 16 15 17 18 20 21 20 19 16 15 15 15 18 21 23 26 30 32 37 40 45 49 54 56 58 50 48 44 43 46 50 50 53 52 50 52
27 27 26 23 21 20 19 19 19 20 21 22 23 21 19 18 19 20 22 24 27 30 33 36 40 44 47 48 51 53 55 52 47 45 43 42 44 44 44 49 48 49 51